Regional Weather Roundup
Issued by NWS Upton, NY

Home | Current Version | Previous Version | Text Only | Print | Product List | Glossary On
Versions: 1 2 3 4 5 6 7 8 9 10 11 12 13 14 15 16 17 18 19 20 21 22 23 24 25 26 27 28 29 30 31 32 33 34 35 36 37 38 39 40 41 42 43 44 45 46 47 48 49 50
260
ASUS41 KOKX 221908
RWROKX

REGIONAL WEATHER ROUNDUP
NATIONAL WEATHER SERVICE NEW YORK NY
200 PM EST SUN JAN 22 2017

NOTE: "FAIR" INDICATES FEW OR NO CLOUDS BELOW 12,000 FEET WITH NO
SIGNIFICANT WEATHER AND/OR OBSTRUCTIONS TO VISIBILITY.

NYZ071-072-176-178-NJZ106-104-222000-
NEW YORK CITY METRO AREA

CITY           SKY/WX    TMP DP  RH WIND       PRES   REMARKS
Central Park   CLOUDY    47  42  83 VRB7      29.71F
Wall St Helipt CLOUDY    47  42  83 NE15      29.69F
LaGuardia APRT CLOUDY    46  41  82 NE7       29.69F
Kennedy INTL   CLOUDY    51  47  86 N10       29.69F
Breezy Point     N/A     41 N/A N/A E6          N/A
Newark/Liberty CLOUDY    49  44  83 NE10      29.68F
Teterboro      CLOUDY    50  44  80 NE7       29.67F FOG
$$

NYZ177-179-078>081-222000-
LONG ISLAND NEW YORK

CITY           SKY/WX    TMP DP  RH WIND       PRES   REMARKS
Jones Beach      N/A     45 N/A N/A E7          N/A
Matinecock PT  NOT AVBL
Farmingdale    CLOUDY    50  43  77 NE8       29.69S
MacArthur/ISP  PTSUNNY   53  45  74 NE10      29.68F
Shirley        MOSUNNY   51  45  79 NE7       29.70S
Westhampton    CLOUDY    50  43  77 NE10      29.72S
Southampton    NOT AVBL
Bridgehampton  NOT AVBL
East Hampton     N/A     46  42  85 NE8       29.72R
Montauk          N/A     46  42  86 NE10G17   29.73F
$$

NYZ052-065-067-222000-
HUDSON VALLEY

CITY           SKY/WX    TMP DP  RH WIND       PRES   REMARKS
White Plains   PTSUNNY   51  45  79 E7        29.68F FOG
Newburgh       CLOUDY    46  45  93 VRB5      29.72R
Montgomery     CLOUDY    49  45  86 CALM      29.69S
Poughkeepsie   CLOUDY    48  43  82 CALM      29.71R
Albany         CLOUDY    42  38  85 N9        29.76F
$$

NJZ001-105-106-008-010-013-015-019>022-104-222000-
NEW JERSEY

CITY           SKY/WX    TMP DP  RH WIND       PRES   REMARKS
Newark/Liberty CLOUDY    49  44  83 NE10      29.68F
Teterboro      CLOUDY    50  44  80 NE7       29.67F FOG
Caldwell       CLOUDY    48  45  89 NE6       29.68F FOG
Somerville     CLOUDY    50  46  86 NE7       29.66F
Linden         CLOUDY    50  45  84 CALM      29.68F HAZE
Sussex         FOG       47  46  97 NE9       29.68F VSB 3/4
Andover          N/A     46  45  96 CALM      29.67F
Trenton        CLOUDY    48  47  96 E6        29.67S FOG
Millville      CLOUDY    49  49 100 NE8       29.63F
Atlantic City  CLOUDY    49  46  90 N8        29.63F
Wrightstown    LGT RAIN  48  48 100 NE6       29.64F FOG
Toms River     LGT RAIN  46  45  96 NE12      29.67F FOG
Belmar         LGT RAIN  45  44  97 NE6       29.69R FOG
$$

PAZ047>061-062-071-222000-
EASTERN PENNSYLVANIA

CITY           SKY/WX    TMP DP  RH WIND       PRES   REMARKS
Philadelphia   CLOUDY    50  47  89 E8        29.66S
Allentown      CLOUDY    49  45  86 E6        29.66F FOG
Scranton       MOSUNNY   51  47  86 VRB3      29.62F
$$

CTZ002-004>006-009-010-012-RIZ004-006-007-MAZ004-011-015-222000-
SOUTHERN NEW ENGLAND
 IN CT

CITY           SKY/WX    TMP DP  RH WIND       PRES   REMARKS
Bradley INTL   CLOUDY    50  41  71 N12       29.76S
Hartford       PTSUNNY   52  43  71 N8        29.74S
Danbury        CLOUDY    53  45  74 SE6       29.71S
Wtrbury/Oxford CLOUDY    52  43  71 E6        29.74S
Bridgeport     CLOUDY    46  41  82 E12       29.72S
Meriden        CLOUDY    55  43  63 N8        29.73S
New Haven      CLOUDY    48  43  82 E5        29.72F
Chester        CLOUDY    55  45  67 VRB3      29.72R
Groton         SUNNY     53  43  68 E9        29.72F
Wilimantic     CLOUDY    54  42  64 NE13      29.75F

 IN RI

CITY           SKY/WX    TMP DP  RH WIND       PRES   REMARKS
Providence     CLOUDY    51  40  65 NE10      29.77F
Block Island   NOT AVBL
Westerly       MOSUNNY   56  41  57 NE13      29.74S
 IN MA

CITY           SKY/WX    TMP DP  RH WIND       PRES   REMARKS
Boston         CLOUDY    44  42  93 NE15      29.82F
Worcester      CLOUDY    41  37  86 NE9       29.77F
Westfield      CLOUDY    45  41  86 N12       29.76F
Provincetown   CLOUDY    47  43  86 NE10      29.80S
Nantucket      CLOUDY    50  41  71 NE12      29.76F
$$

ANZ330-335-338-340-345-350-353-355-222000-
COASTAL MARINE OBSERVATIONS


STATION/POSITION TIME  SKY/WX   TEMP    WIND        PRES    VSBY  WAVE
                                AIR SEA DIR/SP/G                  HT/PER
                 (UTC)          (F)     (DEG/KT/KT) (MB)    (MI)  (FT/S)
NY HARB ENTRANCE 1750            43 43   40/ 10/ 12 1005.2          4/12
20 S FIRE ISLAND 1850            45 45   40/ 16/ 19 1004.2          3/11
GREAT SOUTH BAY  NOT AVBL
23 SSW MONTAUK P 1750            47 47   60/ 10/ 12 1006.5          3/11
15 E BARNEGAT LI 1830               47                N/A           5/13
HUDSON CANYON    1750            53 52              1002.6          6/12
KINGS POINT      1842            44 40              1005.4
EXECUTION ROCKS  1845            41      60/ 12/ 14   N/A
CENTRAL LI SOUND 1815            42      80/ 10/ 12   N/A           1
EASTERN LI SOUND NOT AVBL
ROBBINS REEF     1842            45      60/ 11/ 12 1005.2
$$


>>>>>>>>>>>>>>>>>>>>>>>>>>>> KEY <<<<<<<<<<<<<<<<<<<<<<<<<<<
>                                                          <
>     SKY/WX - Sky Condition/Present Weather               <
>     TMP    - Temperature in Fahrenheit                   <
>     DP     - Dew Point in Fahrenheit                     <
>     RH     - Relative Humidity in Percent                <
>     WIND   - Direction (from) and Speed in MPH           <
>     PRES   - Mean Sea Level Pressure (inches of Hg)      <
>     WCI    - Wind Chill Index                            <
>     VSB    - VISIBILITY IN MILES                         <
>     HX     - HEAT INDEX                                  <
>     TC     - TEMPERATURE IN CELSIUS                      <
>     VRB    - VARIABLE WIND DIRECTION                     <
>                                                          <
>>>>>>>>>>>>>>>>>>>>>>>>>>>> KEY <<<<<<<<<<<<<<<<<<<<<<<<<<<




USA.gov is the U.S. government's official web portal to all federal, state and local government web resources and services.